Boulder Muni, Boulder, CO, CO

4:32 PM MDT on October 22, 2019 (GMT -0600)
Boulder Muni, Boulder, CO

Weather History for KBDU - August, 2019

Change the Weather History Date:

Friday, August 9, 2019

  Actual Average Record
Temperature  
Mean Temperature 78 °F -  
Max Temperature 95 °F - 95 °F (2016)
Min Temperature 60 °F - 53 °F (2013)
Degree Days  
Heating Degree Days 0    
Month to date heating degree days  
Cooling Degree Days 12    
Month to date cooling degree days  
Growing Degree Days 28 (Base 50)    
Moisture  
Dew Point 54 °F    
Average Humidity 54    
Maximum Humidity 100    
Minimum Humidity 13    
Precipitation  
Precipitation 0.00 in - 0.00 in (2019)
Snow  
Snow 0.00 in - - ()
Snow Depth -    
Sea Level Pressure  
Sea Level Pressure 30.06 in    
Wind  
Wind Speed 3 mph (East)    
Max Wind Speed 13 mph    
Max Gust Speed 18 mph    
Visibility 10 miles    
Events Rain , Thunderstorm    
T = Trace of Precipitation, MM = Missing Value Source: NWS Daily Summary

Daily Weather History Graph

Daily Weather History Graph

Search for Another Location

Airport or City:

Astronomy

Aug. 09, 2019 Rise Set
Actual Time 6:06 AM MDT 8:05 PM MDT
Civil Twilight 5:37 AM MDT 8:35 PM MDT
Nautical Twilight 5:00 AM MDT 9:11 PM MDT
Astronomical Twilight 4:21 AM MDT 9:49 PM MDT
Moon 3:49 PM MDT (8/9) 1:05 AM MDT (8/9)
Length of Visible Light 14h 58m
Length of Day
13h 59m
Waxing Gibbous, 71% of the Moon is Illuminated
Aug 9
Waxing Gibbous
Aug 15
Full
Aug 23
Last Quarter
Aug 30
New
Sep 5
First Quarter

Hourly Weather History & Observations

Time (MDT) Temp. Heat Index Dew Point Humidity Pressure Visibility Wind Dir Wind Speed Gust Speed Precip Events Conditions
12:12 AM 64.4 °F - 60.8 °F 88% 30.12 in 10.0 mi Calm Calm - N/A   Scattered Clouds
12:30 AM 64.4 °F - 60.8 °F 88% 30.13 in 10.0 mi WSW 5.8 mph - N/A   Mostly Cloudy
12:48 AM 66.2 °F - 60.8 °F 83% 30.12 in 10.0 mi Calm Calm - 0.01 in Rain Rain
1:12 AM 66.2 °F - 60.8 °F 83% 30.10 in 10.0 mi West 3.5 mph - N/A Rain Light Rain
1:30 AM 66.2 °F - 60.8 °F 83% 30.08 in 10.0 mi WSW 8.1 mph - N/A   Scattered Clouds
1:48 AM 66.2 °F - 59.0 °F 78% 30.08 in 10.0 mi SW 5.8 mph - N/A   Scattered Clouds
2:11 AM 68.0 °F - 55.4 °F 64% 30.07 in 10.0 mi WSW 9.2 mph - N/A   Clear
2:29 AM 64.4 °F - 59.0 °F 83% 30.07 in 10.0 mi Calm Calm - N/A   Clear
2:53 AM 64.4 °F - 57.2 °F 77% 30.07 in 10.0 mi Calm Calm - N/A   Clear
3:12 AM 64.4 °F - 59.0 °F 83% 30.08 in 10.0 mi Calm Calm - N/A   Clear
3:30 AM 68.0 °F - 53.6 °F 60% 30.08 in 10.0 mi WSW 4.6 mph 9.2 mph N/A Thunderstorm Scattered Clouds
3:48 AM 68.0 °F - 59.0 °F 73% 30.08 in 10.0 mi NNE 8.1 mph - N/A   Mostly Cloudy
4:12 AM 62.6 °F - 60.8 °F 94% 30.08 in 10.0 mi NNW 3.5 mph - N/A   Overcast
4:30 AM 62.6 °F - 60.8 °F 94% 30.07 in 10.0 mi Calm Calm - N/A   Overcast
4:54 AM 64.4 °F - 60.8 °F 88% 30.08 in 10.0 mi Calm Calm - N/A   Scattered Clouds
5:12 AM 62.6 °F - 60.8 °F 94% 30.08 in 10.0 mi WNW 3.5 mph - N/A   Clear
5:30 AM 62.6 °F - 60.8 °F 94% 30.08 in 10.0 mi Calm Calm - N/A   Clear
5:54 AM 62.6 °F - 60.8 °F 94% 30.09 in 10.0 mi Calm Calm - N/A   Clear
6:14 AM 60.8 °F - 60.8 °F 100% 30.10 in 10.0 mi Calm Calm - N/A   Clear
6:32 AM 60.8 °F - 60.8 °F 100% 30.10 in 10.0 mi NW 5.8 mph - N/A   Scattered Clouds
6:50 AM 62.6 °F - 60.8 °F 94% 30.10 in 10.0 mi Calm Calm - N/A   Scattered Clouds
7:12 AM 64.4 °F - 60.8 °F 88% 30.11 in 10.0 mi Calm Calm - N/A   Scattered Clouds
7:30 AM 64.4 °F - 60.8 °F 88% 30.11 in 10.0 mi Calm Calm - N/A   Clear
7:54 AM 68.0 °F - 62.6 °F 83% 30.11 in 10.0 mi Calm Calm - N/A   Clear
8:12 AM 68.0 °F - 62.6 °F 83% 30.11 in 10.0 mi SSE 4.6 mph - N/A   Clear
8:30 AM 69.8 °F - 62.6 °F 78% 30.11 in 10.0 mi Calm Calm - N/A   Clear
8:54 AM 71.6 °F - 62.6 °F 73% 30.10 in 10.0 mi East 4.6 mph - N/A   Clear
9:12 AM 71.6 °F - 60.8 °F 69% 30.11 in 10.0 mi Calm Calm - N/A   Clear
9:33 AM 73.4 °F - 60.8 °F 65% 30.11 in 10.0 mi ESE 3.5 mph - N/A   Clear
9:51 AM 75.2 °F - 60.8 °F 61% 30.10 in 10.0 mi East 3.5 mph - N/A   Clear
10:12 AM 77.0 °F - 59.0 °F 54% 30.10 in 10.0 mi ENE 4.6 mph - N/A   Clear
10:32 AM 78.8 °F - 59.0 °F 51% 30.10 in 10.0 mi East 4.6 mph - N/A   Clear
10:49 AM 80.6 °F 81.1 °F 59.0 °F 48% 30.09 in 10.0 mi East 4.6 mph - N/A   Clear
11:12 AM 82.4 °F 82.0 °F 57.2 °F 42% 30.08 in 10.0 mi East 4.6 mph - N/A   Clear
11:30 AM 82.4 °F 81.7 °F 55.4 °F 39% 30.07 in 10.0 mi SE 4.6 mph - N/A   Clear
11:48 AM 86.0 °F 84.2 °F 53.6 °F 33% 30.07 in 10.0 mi East 4.6 mph - N/A   Clear
12:12 PM 86.0 °F 84.2 °F 53.6 °F 33% 30.06 in 10.0 mi East 5.8 mph - N/A   Clear
12:30 PM 87.8 °F - 51.8 °F 29% 30.05 in 10.0 mi East 5.8 mph - N/A   Clear
12:53 PM 89.6 °F - 50.0 °F 26% 30.04 in 10.0 mi ESE 3.5 mph - N/A   Clear
1:12 PM 89.6 °F - 50.0 °F 26% 30.03 in 10.0 mi East 5.8 mph - N/A   Clear
1:30 PM 89.6 °F - 46.4 °F 22% 30.03 in 7.0 mi ENE 3.5 mph - N/A   Clear
1:48 PM 89.6 °F - 46.4 °F 22% 30.02 in 10.0 mi NW 3.5 mph - N/A   Scattered Clouds
2:12 PM 89.6 °F - 44.6 °F 21% 30.01 in 10.0 mi Calm Calm - N/A   Scattered Clouds
2:30 PM 93.2 °F - 39.2 °F 15% 30.01 in 10.0 mi WSW 6.9 mph 16.1 mph N/A   Scattered Clouds
2:53 PM 93.2 °F - 39.2 °F 15% 30.00 in 10.0 mi West 9.2 mph - N/A   Scattered Clouds
3:12 PM 93.2 °F - 39.2 °F 15% 30.00 in 10.0 mi WSW 9.2 mph - N/A   Clear
3:30 PM 95.0 °F - 39.2 °F 14% 29.98 in 10.0 mi West 12.7 mph 17.3 mph N/A   Scattered Clouds
3:48 PM 95.0 °F - 37.4 °F 13% 29.98 in 10.0 mi West 6.9 mph - N/A   Scattered Clouds
4:12 PM 91.4 °F - 37.4 °F 15% 29.97 in 10.0 mi North 3.5 mph - N/A   Clear
4:30 PM 91.4 °F - 37.4 °F 15% 29.97 in 10.0 mi North 3.5 mph - N/A   Scattered Clouds
4:48 PM 91.4 °F - 37.4 °F 15% 29.97 in 10.0 mi ENE 5.8 mph - N/A   Scattered Clouds
5:12 PM 89.6 °F - 37.4 °F 16% 29.98 in 10.0 mi Calm Calm - N/A   Clear
5:53 PM 87.8 °F - 42.8 °F 21% 29.99 in 10.0 mi NE 4.6 mph - N/A   Clear
6:08 PM 87.8 °F - 41.0 °F 19% 29.98 in 10.0 mi ENE 5.8 mph - N/A Thunderstorm Clear
6:32 PM 87.8 °F - 46.4 °F 24% 30.00 in 10.0 mi ENE 6.9 mph - N/A   Clear
6:50 PM 87.8 °F - 50.0 °F 27% 30.00 in 10.0 mi East 11.5 mph 18.4 mph N/A   Clear
7:12 PM 84.2 °F 83.0 °F 55.4 °F 37% 30.01 in 10.0 mi SSE 8.1 mph 17.3 mph N/A   Clear
7:30 PM 82.4 °F 81.4 °F 53.6 °F 37% 30.03 in 10.0 mi South 6.9 mph - N/A   Mostly Cloudy
7:48 PM 82.4 °F - 51.8 °F 35% 30.03 in 10.0 mi South 8.1 mph - N/A   Mostly Cloudy
8:12 PM 80.6 °F - 50.0 °F 34% 30.03 in 10.0 mi SSE 4.6 mph - N/A   Clear
8:30 PM 78.8 °F - 50.0 °F 36% 30.04 in 10.0 mi ENE 5.8 mph - N/A   Clear
8:54 PM 75.2 °F - 51.8 °F 44% 30.04 in 10.0 mi NNE 10.4 mph - N/A   Scattered Clouds
9:12 PM 73.4 °F - 51.8 °F 47% 30.07 in 10.0 mi Calm Calm - N/A   Scattered Clouds
9:30 PM 73.4 °F - 51.8 °F 47% 30.08 in 10.0 mi Calm Calm - N/A   Clear
9:54 PM 73.4 °F - 51.8 °F 47% 30.08 in 10.0 mi SW 4.6 mph - N/A   Clear
10:12 PM 73.4 °F - 51.8 °F 47% 30.09 in 10.0 mi Calm Calm - N/A   Clear
10:30 PM 69.8 °F - 53.6 °F 56% 30.09 in 10.0 mi Calm Calm - N/A   Clear
10:54 PM 69.8 °F - 55.4 °F 60% 30.08 in 10.0 mi North 4.6 mph - N/A   Clear
11:12 PM 69.8 °F - 55.4 °F 60% 30.08 in 10.0 mi WNW 4.6 mph - N/A   Scattered Clouds
11:30 PM 71.6 °F - 53.6 °F 53% 30.07 in 10.0 mi WSW 4.6 mph - N/A   Scattered Clouds
11:53 PM 73.4 °F - 53.6 °F 50% 30.07 in 10.0 mi WSW 5.8 mph - N/A   Scattered Clouds